Total_Precipitation_Accumulation
0.06 0.07 0.24 0.32 0.35 0.35 0.34 0.36 0.33 0.31 0.32 0.33 0.34 0.35 0.33 0.33 0.35 0.36 0.39 0.43 0.44 0.42 0.45 0.53 0.55 0.55 0.54 0.52 0.52 0.51 0.44 0.41 0.41 0.42 0.48 0.53 0.48 0.39 0.33 0.29 0.25 0.32 0.39
0.04 0.06 0.17 0.23 0.28 0.31 0.32 0.32 0.29 0.25 0.26 0.28 0.27 0.27 0.27 0.29 0.31 0.32 0.38 0.45 0.48 0.43 0.44 0.50 0.56 0.55 0.53 0.52 0.53 0.48 0.37 0.29 0.25 0.23 0.25 0.33 0.38 0.37 0.33 0.31 0.30 0.43 0.46
0.03 0.04 0.11 0.19 0.24 0.28 0.30 0.28 0.25 0.22 0.21 0.23 0.23 0.24 0.23 0.26 0.29 0.31 0.37 0.40 0.43 0.47 0.47 0.48 0.59 0.62 0.62 0.58 0.54 0.47 0.38 0.25 0.16 0.14 0.14 0.24 0.35 0.42 0.38 0.33 0.33 0.37 0.40
0.01 0.03 0.05 0.15 0.22 0.27 0.28 0.27 0.24 0.22 0.20 0.21 0.22 0.24 0.24 0.25 0.28 0.32 0.38 0.41 0.44 0.54 0.57 0.61 0.67 0.66 0.62 0.54 0.49 0.44 0.39 0.26 0.14 0.11 0.10 0.21 0.38 0.46 0.42 0.38 0.33 0.34 0.37
0.00 0.02 0.05 0.13 0.21 0.25 0.28 0.28 0.27 0.23 0.20 0.20 0.22 0.24 0.26 0.26 0.28 0.30 0.32 0.38 0.45 0.55 0.55 0.55 0.61 0.59 0.56 0.51 0.45 0.47 0.48 0.34 0.18 0.08 0.07 0.15 0.31 0.49 0.45 0.43 0.36 0.32 0.34
0.00 0.01 0.04 0.13 0.21 0.24 0.28 0.32 0.32 0.27 0.23 0.23 0.23 0.25 0.26 0.29 0.29 0.29 0.29 0.29 0.34 0.41 0.44 0.48 0.52 0.52 0.50 0.46 0.40 0.44 0.52 0.44 0.20 0.07 0.09 0.13 0.25 0.44 0.45 0.44 0.39 0.34 0.31
0.00 0.01 0.04 0.13 0.22 0.24 0.26 0.31 0.33 0.28 0.25 0.25 0.27 0.29 0.29 0.30 0.31 0.28 0.24 0.24 0.23 0.26 0.32 0.41 0.48 0.52 0.52 0.46 0.41 0.44 0.50 0.40 0.17 0.15 0.16 0.17 0.23 0.32 0.46 0.49 0.43 0.39 0.36
0.01 0.02 0.04 0.14 0.22 0.24 0.25 0.29 0.36 0.32 0.29 0.27 0.30 0.32 0.33 0.35 0.37 0.35 0.28 0.24 0.22 0.21 0.24 0.30 0.41 0.58 0.57 0.45 0.43 0.47 0.45 0.27 0.12 0.12 0.16 0.20 0.24 0.37 0.68 0.77 0.57 0.46 0.43
0.01 0.02 0.05 0.13 0.19 0.25 0.26 0.29 0.35 0.34 0.33 0.33 0.34 0.35 0.35 0.35 0.36 0.38 0.35 0.31 0.31 0.28 0.26 0.27 0.34 0.53 0.55 0.48 0.48 0.51 0.37 0.17 0.09 0.15 0.14 0.23 0.22 0.45 0.80 0.90 0.78 0.60 0.50
0.02 0.03 0.06 0.12 0.16 0.21 0.25 0.28 0.32 0.33 0.34 0.35 0.35 0.33 0.30 0.31 0.34 0.33 0.30 0.28 0.30 0.31 0.30 0.27 0.29 0.40 0.46 0.47 0.54 0.48 0.23 0.11 0.07 0.11 0.21 0.20 0.19 0.46 0.87 0.97 0.90 0.75 0.62
0.04 0.05 0.07 0.13 0.17 0.21 0.24 0.25 0.28 0.30 0.30 0.31 0.31 0.28 0.28 0.28 0.29 0.28 0.23 0.22 0.26 0.30 0.30 0.31 0.32 0.36 0.40 0.39 0.44 0.34 0.15 0.08 0.08 0.12 0.19 0.18 0.21 0.44 0.84 1.01 0.96 0.87 0.78
0.04 0.06 0.08 0.13 0.17 0.21 0.22 0.24 0.28 0.27 0.25 0.24 0.23 0.25 0.27 0.30 0.31 0.28 0.24 0.22 0.27 0.28 0.31 0.36 0.39 0.38 0.36 0.32 0.44 0.34 0.18 0.12 0.12 0.08 0.11 0.11 0.23 0.45 0.71 0.92 1.02 0.95 0.90
0.05 0.07 0.11 0.17 0.21 0.22 0.24 0.25 0.28 0.29 0.28 0.27 0.26 0.27 0.32 0.36 0.36 0.34 0.31 0.28 0.27 0.26 0.28 0.32 0.38 0.34 0.38 0.51 0.66 0.52 0.35 0.27 0.17 0.10 0.06 0.07 0.18 0.35 0.58 0.76 0.97 1.08 1.07
0.06 0.07 0.11 0.17 0.21 0.25 0.29 0.31 0.27 0.26 0.25 0.25 0.26 0.26 0.28 0.31 0.30 0.29 0.27 0.26 0.27 0.27 0.28 0.30 0.31 0.34 0.36 0.43 0.49 0.45 0.36 0.31 0.22 0.16 0.10 0.09 0.12 0.21 0.37 0.56 0.78 1.04 1.14
0.07 0.08 0.10 0.13 0.17 0.22 0.27 0.32 0.31 0.27 0.24 0.22 0.22 0.22 0.21 0.22 0.23 0.23 0.22 0.21 0.21 0.23 0.25 0.26 0.25 0.26 0.30 0.33 0.33 0.33 0.31 0.27 0.23 0.21 0.18 0.14 0.12 0.14 0.24 0.41 0.56 0.82 1.10
0.07 0.08 0.10 0.12 0.14 0.19 0.22 0.25 0.30 0.33 0.31 0.28 0.24 0.22 0.20 0.19 0.18 0.18 0.18 0.17 0.17 0.17 0.18 0.21 0.22 0.24 0.25 0.27 0.25 0.24 0.24 0.22 0.21 0.21 0.21 0.19 0.16 0.15 0.22 0.33 0.45 0.59 0.87
0.06 0.08 0.10 0.12 0.13 0.18 0.20 0.21 0.25 0.29 0.33 0.31 0.26 0.23 0.22 0.19 0.18 0.17 0.17 0.17 0.16 0.18 0.21 0.27 0.29 0.31 0.32 0.32 0.28 0.28 0.27 0.24 0.22 0.25 0.26 0.24 0.23 0.21 0.24 0.35 0.44 0.50 0.68
0.06 0.08 0.10 0.13 0.13 0.17 0.21 0.24 0.25 0.28 0.30 0.28 0.26 0.26 0.25 0.24 0.22 0.22 0.20 0.19 0.17 0.20 0.25 0.31 0.36 0.37 0.36 0.36 0.35 0.35 0.36 0.34 0.30 0.31 0.33 0.29 0.28 0.26 0.25 0.31 0.42 0.50 0.63
0.06 0.07 0.10 0.13 0.14 0.16 0.22 0.26 0.26 0.28 0.32 0.30 0.29 0.30 0.29 0.29 0.29 0.28 0.25 0.23 0.23 0.25 0.28 0.32 0.34 0.37 0.37 0.39 0.41 0.41 0.44 0.45 0.42 0.37 0.33 0.31 0.29 0.27 0.28 0.30 0.36 0.41 0.55
0.07 0.08 0.09 0.12 0.16 0.16 0.21 0.29 0.32 0.30 0.32 0.32 0.30 0.28 0.29 0.31 0.32 0.32 0.30 0.29 0.29 0.31 0.32 0.34 0.36 0.37 0.38 0.43 0.47 0.46 0.47 0.47 0.46 0.42 0.38 0.39 0.37 0.31 0.29 0.30 0.33 0.34 0.38
0.06 0.09 0.10 0.11 0.17 0.19 0.20 0.25 0.29 0.27 0.27 0.30 0.29 0.27 0.29 0.30 0.31 0.32 0.31 0.31 0.32 0.31 0.32 0.34 0.35 0.35 0.35 0.38 0.44 0.40 0.37 0.38 0.39 0.37 0.34 0.36 0.39 0.42 0.41 0.37 0.35 0.35 0.36
0.04 0.07 0.10 0.10 0.13 0.19 0.19 0.19 0.24 0.24 0.26 0.28 0.29 0.30 0.30 0.30 0.30 0.31 0.31 0.32 0.34 0.33 0.31 0.30 0.33 0.36 0.34 0.34 0.43 0.46 0.40 0.35 0.32 0.29 0.28 0.31 0.36 0.42 0.45 0.47 0.46 0.42 0.39
0.05 0.06 0.09 0.10 0.11 0.16 0.22 0.24 0.28 0.32 0.31 0.32 0.32 0.30 0.31 0.30 0.30 0.30 0.30 0.32 0.33 0.36 0.35 0.31 0.31 0.36 0.37 0.35 0.39 0.55 0.61 0.45 0.32 0.25 0.25 0.27 0.29 0.30 0.32 0.36 0.40 0.44 0.45
0.07 0.08 0.10 0.13 0.12 0.13 0.19 0.27 0.30 0.33 0.30 0.25 0.25 0.27 0.29 0.30 0.30 0.30 0.31 0.32 0.34 0.35 0.37 0.38 0.35 0.36 0.39 0.39 0.38 0.40 0.47 0.49 0.56 0.40 0.19 0.16 0.19 0.21 0.23 0.25 0.28 0.32 0.37
0.06 0.08 0.09 0.14 0.16 0.14 0.15 0.20 0.28 0.32 0.32 0.32 0.31 0.31 0.32 0.34 0.33 0.32 0.31 0.32 0.33 0.34 0.34 0.37 0.39 0.41 0.41 0.41 0.43 0.41 0.37 0.35 0.43 0.59 0.35 0.15 0.14 0.15 0.18 0.22 0.26 0.30 0.34
0.04 0.06 0.09 0.12 0.16 0.16 0.18 0.19 0.25 0.30 0.34 0.38 0.41 0.38 0.35 0.35 0.35 0.34 0.33 0.33 0.34 0.34 0.33 0.35 0.37 0.38 0.39 0.40 0.41 0.43 0.46 0.48 0.43 0.52 0.50 0.29 0.21 0.16 0.16 0.19 0.23 0.29 0.36